{"data":{"norad_id":56956,"epoch":"2026-05-24T23:13:36.021792Z","epoch_age_seconds":71100,"freshness":"FRESH","line1":"1 56956U 23084AA  26144.96777803  .00005943  00000+0  29352-3 0  9996","line2":"2 56956  97.6164 279.8509 0001481  95.5180 264.6222 15.18253865113371","mean_motion":15.18253865,"eccentricity":0.0001481,"inclination_deg":97.6164,"raan_deg":279.8509,"arg_perigee_deg":95.518,"mean_anomaly_deg":264.6222,"bstar":0.00029352,"rev_number":11337,"period_min":94.845798400125,"perigee_km":510.09745249448,"apogee_km":512.13804975177,"semimajor_km":6889.2547511231,"source":"CELESTRAK","updated_at":"2026-05-25T13:37:59.786694Z"}}